Wind_Speed
10 10 10 10 10 10 10 11 11 12 13 13 14 15 15 16 17 18 18 17 14 13 11 7 2 1 3 4 6 7 7 7 7 5 4 6 8 8 8 9 10 11 11 11 11 10 7 5 5 6 5 0 2 3 4 6 5 2 2 4 1 3 4 5 7 7 4 3 6 11 14 8 4 9 9 5 7 9 13 16 14 17 19 14 13 14 21 26
10 10 10 10 10 10 10 10 10 11 12 12 13 13 14 15 16 17 18 18 15 12 11 8 4 3 3 2 5 6 6 6 5 4 4 5 6 6 7 7 8 9 10 10 10 11 9 7 7 6 3 1 3 4 4 5 6 3 3 3 1 5 4 4 6 7 2 1 8 11 11 10 6 10 13 6 6 9 9 12 13 14 17 16 17 18 23 26
11 11 11 11 10 10 10 9 10 10 11 12 12 12 13 14 15 16 17 18 16 12 10 9 6 4 4 3 4 5 5 4 4 3 4 4 5 5 5 6 6 7 9 10 10 11 11 10 11 6 1 3 4 4 5 7 5 1 3 3 4 6 3 4 4 7 4 0 6 7 7 8 7 10 13 7 5 7 9 13 14 16 21 21 21 23 25 26
12 12 12 12 12 11 11 10 10 10 11 11 12 12 12 14 14 15 16 17 17 13 10 8 7 4 5 6 5 5 4 2 4 4 3 2 3 4 4 4 5 6 8 9 10 11 10 11 11 5 3 4 5 4 4 9 5 0 4 3 5 4 1 5 5 4 5 3 3 5 4 5 7 11 13 9 5 5 14 23 24 23 25 25 26 27 27 27
13 13 13 13 13 13 13 12 12 11 11 11 12 12 12 13 14 14 14 16 16 14 11 9 7 5 5 6 7 7 4 1 4 6 3 2 2 3 3 3 3 6 7 8 10 10 10 11 9 4 5 4 5 5 3 8 5 2 2 2 3 6 1 5 5 3 6 5 4 5 4 6 8 11 16 15 8 8 16 24 28 26 23 24 27 28 29 28
12 13 13 13 13 14 14 14 13 13 12 12 12 12 12 12 13 13 13 14 15 14 12 11 8 5 4 5 7 8 5 1 4 7 4 3 2 1 1 1 2 4 7 7 8 9 10 12 9 4 4 4 4 3 3 7 3 1 1 2 3 7 2 4 6 5 7 7 6 7 7 9 9 9 16 21 20 19 16 15 20 23 20 22 26 28 29 28
13 13 13 13 13 13 14 14 14 14 13 13 12 13 13 12 13 13 12 13 14 14 12 12 11 6 4 5 6 7 8 6 6 8 6 5 3 1 0 1 0 2 5 5 5 7 10 13 11 6 4 3 1 1 4 6 2 2 1 1 4 6 4 5 8 8 9 10 10 7 7 10 11 7 9 21 30 28 22 15 14 20 21 23 27 28 27 26
13 13 14 14 13 14 14 14 14 14 14 13 13 13 13 13 13 13 12 13 13 13 12 12 12 7 5 5 6 7 9 8 6 9 8 6 4 2 2 2 1 2 4 4 4 7 11 13 11 6 3 3 2 1 3 5 2 3 2 2 3 5 6 7 8 10 12 13 12 8 8 10 13 8 6 20 29 27 28 22 16 19 23 26 29 28 26 26
14 14 14 14 14 14 14 14 14 14 13 13 13 13 13 13 14 14 13 13 13 13 12 11 12 10 6 6 6 6 7 6 6 9 9 7 5 3 4 3 3 2 3 4 3 5 9 10 9 5 1 3 3 2 2 2 2 1 1 3 3 5 6 8 10 11 12 13 10 8 7 9 10 6 11 24 26 23 25 22 18 20 24 28 30 28 26 26
17 16 16 16 15 15 15 14 14 14 14 13 13 13 13 13 14 14 14 13 13 13 12 10 10 10 7 7 5 4 5 5 7 10 10 9 7 5 5 4 4 4 4 4 3 2 7 8 7 6 2 4 3 1 2 2 1 2 3 5 6 7 8 8 10 11 11 11 9 8 6 6 4 1 8 16 17 21 22 20 20 22 26 29 29 28 27 26
18 18 18 18 17 17 16 15 15 15 14 14 13 13 13 13 14 14 14 14 14 13 12 9 9 10 8 8 7 5 6 6 7 10 11 10 9 8 6 5 5 5 5 5 3 2 4 6 6 4 1 0 1 0 1 1 1 3 4 5 7 7 6 6 7 9 7 6 9 7 5 4 3 3 10 11 11 18 21 21 23 25 28 29 29 28 27 26
19 20 19 19 19 19 18 17 17 16 15 15 14 13 13 14 14 14 15 16 15 13 11 9 9 10 8 10 13 11 10 9 8 10 12 12 11 9 7 6 6 6 6 6 5 3 2 4 5 3 1 1 2 1 1 2 3 2 2 3 7 7 3 2 2 5 5 3 5 3 4 5 5 10 14 9 11 17 20 23 25 27 29 29 29 29 28 27
20 20 20 20 20 19 19 19 19 18 17 16 15 14 14 15 14 15 16 15 14 12 10 8 9 11 9 10 12 11 11 11 10 10 12 12 12 10 9 7 7 7 7 7 6 4 3 4 4 2 1 1 1 1 1 4 3 1 2 2 4 7 3 2 1 2 5 3 4 4 4 7 8 16 17 10 13 17 20 24 26 29 30 30 30 30 30 29
20 21 21 21 20 20 20 20 20 20 18 17 16 15 15 15 15 15 16 14 12 11 9 8 9 10 9 10 11 11 11 11 10 11 12 13 12 11 10 8 8 8 7 7 6 4 3 4 3 1 3 2 1 1 3 5 4 1 1 2 2 3 4 5 1 4 4 4 5 5 3 9 8 12 14 12 16 19 23 26 28 30 31 32 32 32 32 31
21 21 21 21 21 21 21 21 21 20 20 19 18 16 16 16 16 16 15 12 11 12 10 10 10 8 9 12 12 12 11 11 12 13 13 13 13 12 10 9 9 9 8 8 7 5 4 4 2 2 3 1 2 2 3 5 4 3 1 3 3 0 5 8 3 6 5 3 5 5 2 10 10 8 10 13 17 21 24 26 29 31 33 34 34 34 34 33
21 21 21 21 21 21 21 21 21 21 21 20 19 18 16 17 17 16 14 13 13 13 11 10 9 7 7 9 10 10 11 12 12 13 14 14 13 12 11 10 10 9 9 8 7 5 4 3 1 3 2 2 3 4 4 4 4 4 1 3 3 1 4 7 3 4 4 1 3 4 3 7 8 5 6 12 18 22 24 25 29 33 34 35 36 36 35 34
22 22 22 21 21 21 21 21 22 22 22 21 22 20 18 18 18 15 13 14 15 12 9 8 7 6 9 10 9 10 11 12 13 14 15 15 14 13 12 11 10 10 8 7 6 4 3 1 1 1 2 3 3 4 3 4 4 4 2 2 4 3 3 4 5 2 1 2 4 4 5 11 13 8 8 13 18 22 24 26 31 33 35 36 37 37 37 37
24 23 22 22 22 21 21 21 22 22 22 22 22 22 21 19 16 13 14 16 14 9 7 7 4 2 8 11 9 9 9 10 13 15 15 15 14 14 13 11 10 9 6 5 5 3 2 1 2 0 3 3 3 5 2 3 4 4 3 2 4 3 4 5 5 3 2 1 5 4 6 14 18 15 15 18 20 24 28 30 31 31 32 35 37 39 40 40
27 25 24 23 22 22 22 22 22 22 23 23 22 22 20 17 13 10 11 12 8 5 3 6 6 3 5 8 9 11 10 10 12 15 17 15 14 13 12 10 9 7 3 1 3 2 0 1 2 0 2 3 3 6 7 8 7 5 5 4 4 5 6 6 6 4 1 2 7 7 9 13 18 17 15 17 21 27 29 27 27 27 29 33 37 40 42 43
30 28 26 25 23 23 23 22 22 22 23 23 23 21 15 11 8 6 8 10 9 10 10 12 14 16 16 14 13 13 12 12 12 14 16 15 14 11 10 9 7 4 2 2 2 0 2 1 3 5 7 7 8 7 6 5 6 4 4 4 5 6 7 6 4 4 1 1 9 9 9 13 17 18 17 15 17 22 22 20 25 28 30 34 37 41 44 45
32 30 29 27 25 24 23 23 22 21 22 22 21 17 10 6 5 5 10 13 14 16 20 22 22 24 24 21 17 13 12 13 14 15 15 15 13 8 7 6 3 3 2 2 2 2 3 3 7 9 9 7 5 6 7 5 5 3 4 4 5 5 8 8 3 4 2 2 6 7 7 12 16 17 19 15 11 15 19 20 26 29 31 35 37 41 43 42
34 33 31 29 27 25 23 23 23 21 20 19 16 11 7 6 6 7 10 12 17 19 20 23 25 27 27 26 23 17 12 11 13 16 16 15 14 10 6 4 4 3 1 3 2 3 2 6 10 8 6 5 5 5 7 5 5 3 2 2 4 4 5 7 4 4 2 2 5 8 8 14 17 17 20 19 13 17 22 24 30 31 31 35 37 39 39 38
35 34 31 30 29 26 24 23 23 20 18 16 13 9 6 6 7 9 9 8 16 19 17 20 23 26 26 25 24 20 16 12 11 15 16 16 15 11 8 5 4 2 0 3 5 2 2 7 8 5 8 8 5 4 7 5 2 3 3 2 5 3 2 5 4 5 3 2 4 8 11 13 14 14 17 18 14 18 24 27 32 31 31 35 36 36 37 39
32 33 30 29 30 27 24 23 22 19 17 14 12 8 5 5 6 10 9 5 9 12 12 16 17 19 21 19 18 16 16 14 10 9 13 17 14 9 7 5 4 2 3 6 7 6 7 6 3 6 6 6 5 3 5 4 2 3 5 6 6 5 5 6 3 5 4 3 2 6 11 10 7 8 10 7 4 10 17 22 28 30 31 33 32 33 36 39
29 29 26 27 29 26 23 23 20 18 16 12 9 7 4 4 5 9 8 2 5 7 8 10 10 12 14 13 12 11 9 12 13 9 10 17 16 7 3 5 5 4 5 5 5 5 9 4 6 5 2 4 6 3 5 7 2 4 5 9 9 8 7 5 5 6 4 4 4 5 7 8 1 3 8 4 3 6 8 12 21 26 26 28 32 34 36 37
25 25 23 25 26 24 21 19 17 15 11 8 7 5 3 2 4 8 6 3 3 6 3 5 5 6 8 8 8 8 2 6 11 13 11 16 18 9 3 4 3 3 5 6 3 4 3 1 4 5 4 4 4 4 5 7 4 3 4 6 6 4 1 2 4 4 2 3 4 4 1 9 4 3 8 6 4 9 9 9 17 23 23 26 33 35 35 36
22 22 20 21 22 20 18 16 16 14 9 7 6 4 2 1 2 6 5 3 4 4 4 5 6 6 7 7 11 10 2 2 5 10 14 15 17 12 5 3 2 2 4 4 2 3 2 3 4 5 5 4 4 5 6 8 7 3 4 4 5 5 3 2 3 1 4 2 4 1 4 8 9 6 6 4 5 11 13 12 14 19 24 28 32 33 34 37
20 19 18 19 19 18 16 16 17 14 11 9 6 5 2 2 2 3 3 2 4 3 4 4 5 7 7 10 15 9 1 3 4 7 13 14 15 11 5 6 6 4 4 5 4 4 3 4 4 5 4 3 6 5 7 10 5 5 5 5 6 5 4 4 4 2 2 3 5 5 5 4 10 6 2 2 4 9 12 14 12 14 21 26 27 29 31 33
17 17 16 17 16 15 15 16 16 15 13 10 7 6 3 4 3 4 3 3 3 2 2 4 5 5 6 8 11 8 1 1 1 6 11 11 13 8 2 6 7 4 2 3 6 4 2 4 5 7 5 5 5 2 5 8 3 4 6 5 5 5 4 4 3 1 2 3 7 7 7 4 8 4 3 3 3 8 10 11 10 13 20 21 20 23 25 28
16 16 16 15 13 12 14 14 16 15 12 10 9 7 6 7 5 3 3 5 3 1 3 4 5 5 6 6 4 6 3 2 1 7 8 6 9 5 3 4 4 4 0 3 3 5 1 2 2 4 4 5 5 3 2 4 4 5 6 4 5 4 4 4 1 3 2 6 9 7 12 7 6 3 5 4 5 7 7 7 7 11 18 18 17 19 20 24
15 16 14 12 11 11 12 13 15 14 12 11 10 11 10 5 4 3 7 4 2 1 3 3 2 4 7 5 2 3 2 2 3 7 5 2 4 3 4 3 2 3 2 5 4 4 3 1 2 3 4 6 7 5 4 4 4 5 4 4 4 4 3 4 4 4 0 7 6 4 8 8 7 6 4 5 7 6 7 6 7 9 15 16 14 15 16 20
14 14 13 12 13 12 12 13 13 13 13 13 13 14 10 2 1 5 4 2 1 3 3 2 1 2 4 2 1 3 2 2 3 6 4 3 3 4 4 5 5 1 3 5 4 5 3 4 2 1 4 6 6 4 3 4 3 4 4 4 3 4 4 4 3 1 3 7 3 2 4 5 11 11 8 10 10 8 9 9 11 12 15 16 14 14 15 18
14 13 14 14 13 13 14 14 13 14 14 15 16 11 7 2 6 5 4 3 2 2 2 2 1 2 4 2 2 3 2 3 4 3 2 3 3 5 6 5 6 3 3 4 1 3 4 5 1 2 3 7 9 4 2 2 2 5 5 4 3 1 1 3 4 2 6 6 2 3 3 4 9 8 11 16 15 14 15 16 19 20 19 18 16 15 16 19
14 14 18 17 14 13 15 15 15 15 15 18 16 8 4 6 6 5 7 8 2 1 2 3 3 2 3 2 4 4 3 4 4 5 2 3 2 5 6 6 6 3 2 2 1 2 3 7 4 5 2 7 10 5 4 5 4 4 4 5 5 5 4 5 4 4 7 6 3 3 2 4 5 4 7 10 12 15 16 19 22 22 20 17 17 17 19 21
14 15 18 18 16 15 13 16 18 16 18 20 12 4 6 9 3 4 7 6 2 0 1 2 4 3 2 3 3 4 5 4 2 5 4 4 4 5 5 7 8 5 4 3 2 3 3 8 5 1 1 7 6 2 5 6 2 2 3 5 3 4 5 2 3 4 2 5 4 3 4 6 3 4 6 4 7 11 11 15 19 18 16 13 15 19 21 23
15 16 18 18 18 15 13 17 19 17 20 18 7 4 10 7 4 5 5 5 5 5 4 1 3 3 4 3 3 4 4 2 1 3 4 4 4 6 5 5 9 11 9 6 3 2 2 6 3 2 2 2 2 1 2 2 3 2 3 4 4 4 5 2 3 1 4 3 6 2 6 8 3 5 5 3 6 9 7 11 14 13 12 12 18 22 22 24
18 20 23 24 20 14 14 18 19 18 19 13 5 9 8 4 7 8 5 6 5 6 7 3 3 5 5 3 4 5 4 2 2 3 4 3 4 7 6 5 8 15 16 10 3 3 4 4 3 2 1 1 1 1 2 2 4 5 3 5 3 2 4 3 1 3 3 3 6 4 9 13 9 6 2 3 6 9 9 10 9 8 9 14 23 26 24 25
20 22 28 31 24 17 16 18 18 19 16 8 9 12 4 4 10 9 9 8 5 6 7 6 6 6 7 6 4 6 6 4 5 4 4 3 4 6 8 5 8 15 21 16 5 2 3 3 4 2 2 1 2 1 1 2 3 5 3 2 3 3 2 2 2 2 2 3 6 9 12 13 9 6 4 5 9 9 10 10 7 7 10 18 26 27 25 25
19 21 28 31 26 23 20 20 21 20 13 7 11 12 4 4 7 10 16 12 4 5 6 7 8 4 5 7 4 5 7 7 7 5 4 5 5 5 9 8 8 10 17 17 8 2 3 3 4 1 1 1 2 2 5 2 2 3 0 1 1 2 4 3 3 3 3 3 6 10 13 12 6 7 7 10 10 10 9 9 8 9 15 23 27 26 26 27
23 17 20 25 21 23 25 23 22 18 10 8 11 7 1 1 5 13 25 19 6 6 7 5 7 5 4 6 4 4 6 6 7 6 4 5 4 4 8 9 5 4 7 9 6 2 3 3 5 1 2 1 4 6 9 10 7 4 3 3 2 1 2 1 2 3 4 4 4 4 11 15 6 7 8 10 9 10 10 9 8 10 19 26 26 25 26 27
27 14 13 17 15 25 32 23 15 11 5 7 8 4 1 3 6 13 24 23 12 7 6 5 7 8 6 6 4 4 5 4 6 6 4 6 6 5 10 14 10 8 5 3 3 4 3 3 5 3 2 5 6 3 3 7 8 7 8 8 8 6 4 1 5 3 3 4 5 4 8 18 6 7 7 8 8 9 10 10 8 11 21 26 24 25 26 27
27 12 12 15 16 30 35 17 9 9 5 8 8 5 6 6 5 8 16 19 12 6 3 3 8 9 7 6 5 5 6 4 6 7 5 7 10 8 11 19 19 17 11 4 3 4 4 3 4 6 6 6 4 1 1 3 2 2 5 5 7 7 7 7 8 5 3 3 2 4 4 16 7 7 6 7 7 8 9 10 9 13 21 23 21 24 25 27
29 18 15 17 23 37 32 8 8 8 5 11 12 9 8 6 2 4 10 13 10 5 5 7 9 10 8 5 5 6 7 7 7 8 5 5 11 12 13 21 22 15 8 3 1 2 3 2 4 6 5 3 4 3 2 2 3 2 6 5 7 8 10 9 6 3 3 4 3 4 5 17 9 4 4 4 3 5 6 10 11 13 19 21 22 24 25 26
31 23 18 21 30 39 27 6 8 10 8 11 12 11 10 7 7 8 8 10 11 7 8 10 7 7 7 4 6 8 9 8 8 8 8 6 8 12 17 26 23 12 7 7 7 9 6 2 3 3 5 5 4 3 2 1 2 4 5 5 8 11 9 3 1 2 4 7 9 5 11 20 10 3 5 1 4 5 7 12 15 15 18 21 23 23 24 26
22 14 15 28 40 41 27 14 9 8 11 14 13 13 11 8 13 19 14 13 14 8 5 7 5 5 7 5 6 9 9 9 9 6 8 9 4 3 15 29 27 17 12 12 14 16 9 3 5 7 9 10 10 7 4 3 3 3 3 5 10 14 13 6 3 5 9 9 10 9 18 20 14 8 4 2 5 7 8 12 16 19 22 23 22 23 25 27
15 8 8 20 37 39 32 26 15 6 9 13 10 10 13 11 11 15 16 14 15 12 6 5 5 6 7 8 8 11 12 12 10 5 6 8 3 1 9 23 26 18 10 10 17 17 5 3 10 14 15 15 16 13 5 7 5 6 9 12 14 15 16 12 8 9 11 8 9 18 23 18 23 27 17 9 10 11 12 13 13 18 23 25 25 26 27 28
15 10 8 11 18 23 25 25 19 9 6 9 6 6 13 15 7 7 13 14 15 16 10 7 7 7 9 13 12 13 14 11 10 12 13 10 5 2 2 10 15 12 6 6 14 12 2 5 15 20 21 19 19 17 7 9 8 12 13 16 17 16 16 15 15 18 15 9 13 23 21 16 27 33 23 16 17 15 15 16 14 17 23 25 26 27 26 28
16 13 20 21 12 8 14 20 20 16 11 9 8 5 9 13 11 10 11 10 11 15 12 8 13 17 17 17 13 10 10 9 11 16 18 14 7 2 0 1 4 6 3 2 6 6 3 9 16 17 19 19 20 18 9 8 8 9 12 17 19 18 19 19 22 27 23 15 17 23 21 21 29 28 20 18 17 13 18 22 19 18 22 22 23 24 26 27
18 10 17 27 18 11 19 26 22 18 17 14 10 9 12 16 18 14 7 4 6 13 15 13 17 23 23 17 11 9 9 11 14 16 14 12 10 5 3 3 2 3 4 3 3 3 4 9 14 14 15 17 19 18 10 8 9 9 12 18 19 17 20 23 27 31 27 21 23 27 27 29 30 23 17 21 21 17 23 29 23 20 21 21 23 25 26 28
26 19 18 22 18 16 22 23 16 12 15 16 11 12 16 19 22 16 7 9 9 7 13 21 23 18 16 14 13 14 18 19 20 18 11 8 7 5 4 7 3 1 3 4 2 3 5 7 9 8 9 15 19 15 9 10 11 12 16 24 21 15 16 23 27 25 21 20 25 28 27 28 27 20 15 21 25 22 23 26 26 28 27 24 24 26 27 29
44 38 30 18 11 14 18 14 11 9 10 12 13 15 17 19 25 19 9 13 18 12 13 21 23 15 10 13 17 21 28 27 23 22 14 9 10 10 8 8 7 5 4 5 3 3 5 4 2 2 6 15 14 8 7 7 5 9 21 31 27 18 18 23 21 17 17 20 23 22 19 22 23 18 14 17 19 19 19 21 25 30 30 26 26 29 30 32
50 42 32 19 9 12 14 9 9 10 8 11 17 19 18 20 23 17 9 13 24 28 22 19 18 14 9 13 23 33 40 38 33 34 27 15 15 18 15 12 12 10 7 6 4 4 6 4 3 4 9 13 7 3 6 5 1 10 21 26 25 21 22 22 18 18 23 22 17 16 19 22 20 14 15 19 18 17 19 21 24 27 27 26 29 33 33 34
Wind_Direction
0 2 4 6 9 9 9 8 5 4 7 9 8 7 5 4 5 6 6 9 11 6 2 0 345 199 136 116 114 109 105 94 87 102 107 82 65 57 50 48 43 33 25 16 12 8 4 0 344 339 328 282 51 38 65 36 31 54 94 83 98 173 200 191 176 193 171 188 206 188 184 172 176 183 175 173 187 186 183 194 203 205 218 232 221 205 191 190
350 353 354 358 0 2 4 2 359 356 356 359 0 0 360 358 358 1 0 0 5 6 358 352 337 261 222 146 128 118 112 105 105 129 119 88 68 62 56 57 48 37 30 21 19 12 6 3 359 356 336 126 46 48 77 31 38 74 108 81 239 198 213 202 177 196 184 142 194 194 194 195 211 185 175 182 190 179 183 204 212 214 217 218 209 196 190 191
342 344 346 349 351 353 355 356 354 349 347 348 349 351 352 351 351 354 355 355 358 3 0 349 336 286 251 212 160 141 138 139 151 146 121 101 74 70 64 66 52 38 29 22 21 12 6 2 2 5 33 93 51 71 73 25 34 77 89 81 245 218 244 252 214 207 214 276 177 196 206 208 229 192 183 195 185 188 207 205 204 212 211 205 200 193 191 193
336 339 341 343 344 345 347 349 349 345 343 341 340 341 344 344 343 346 349 350 353 358 1 352 337 307 264 228 201 183 183 215 206 178 142 128 79 75 71 73 52 32 24 20 20 13 11 7 4 13 69 80 41 75 62 19 26 11 95 143 233 193 249 260 244 234 230 257 201 203 208 227 226 194 191 180 158 232 230 217 215 223 219 206 199 195 194 195
331 334 337 339 341 343 344 345 345 344 341 340 337 334 336 338 336 338 343 345 349 354 354 353 341 314 284 237 225 222 219 300 202 184 169 172 98 74 71 75 50 28 17 15 16 13 15 13 15 37 63 60 28 57 34 12 43 54 98 213 218 156 207 259 227 235 233 237 215 188 196 228 205 196 203 188 187 238 237 233 230 232 229 216 207 198 195 196
323 328 331 336 340 342 344 345 346 345 343 342 337 332 330 331 330 331 335 338 343 348 347 348 344 320 294 249 237 233 223 281 213 197 194 193 150 73 73 81 53 23 10 10 9 11 14 15 28 59 69 55 25 61 13 2 37 54 349 264 187 170 236 249 205 223 237 225 208 198 216 215 188 217 222 207 222 238 240 249 237 230 226 218 211 201 197 197
316 321 326 331 336 340 343 344 345 346 347 345 340 333 328 326 326 325 329 333 335 341 342 341 343 329 296 264 246 238 239 268 244 207 201 198 195 211 225 203 146 8 6 2 351 8 12 14 34 69 91 72 61 121 4 357 50 109 109 247 178 199 238 213 206 228 238 235 231 223 218 208 198 227 231 221 236 242 241 251 243 229 216 210 208 203 202 201
310 315 320 326 331 335 339 340 342 343 346 346 345 337 329 326 324 322 324 327 329 334 336 335 340 333 300 270 254 255 258 264 235 205 204 205 208 226 250 235 225 338 353 346 341 9 11 13 30 50 95 95 139 153 6 1 35 96 142 224 191 217 222 202 219 235 240 242 242 229 214 219 219 227 246 241 246 244 239 247 247 227 211 207 207 206 204 201
307 311 315 320 324 329 333 336 337 338 342 345 347 340 331 327 323 322 322 323 324 328 331 330 332 330 305 270 263 273 267 248 224 214 212 213 217 230 244 238 237 284 329 331 334 9 13 17 20 16 118 137 126 112 43 28 337 118 189 247 219 231 231 224 236 239 241 242 233 217 224 242 232 245 268 254 250 243 237 240 238 221 209 206 205 205 205 204
307 310 313 316 319 323 326 330 331 333 338 341 345 343 335 329 322 322 321 320 320 321 326 323 325 326 302 274 259 263 273 254 240 231 220 220 225 233 240 238 247 267 308 321 307 357 18 18 9 12 100 133 101 86 82 93 292 297 295 275 250 258 259 245 242 242 244 241 225 211 236 257 206 184 268 254 241 234 231 227 225 216 208 206 205 205 206 208
307 309 311 314 316 319 321 325 326 328 333 336 341 341 335 329 323 322 319 317 317 318 322 317 319 320 299 272 241 236 277 278 261 241 226 225 228 235 244 245 256 265 283 308 295 271 9 11 5 11 50 97 11 21 122 102 317 312 314 286 275 288 273 242 242 239 232 238 229 215 246 258 137 184 251 253 236 227 224 218 216 211 208 207 205 206 207 210
302 304 307 311 313 316 318 321 322 324 328 332 336 337 334 327 322 322 318 315 316 318 321 313 315 317 298 269 253 257 277 279 274 246 227 229 231 236 245 254 265 267 273 293 294 256 310 347 355 5 346 267 332 39 75 11 339 323 29 309 297 347 358 227 263 221 194 227 227 189 279 253 183 228 247 252 233 220 215 214 212 208 207 207 206 208 210 211
296 299 303 306 309 312 315 317 319 321 324 327 331 333 331 323 322 322 317 314 314 317 321 311 314 312 292 270 268 272 274 272 270 244 230 234 235 240 248 259 266 263 268 281 289 262 258 318 334 5 81 120 38 77 313 344 1 305 60 48 315 356 359 212 60 167 183 227 198 124 293 260 218 234 242 241 223 209 205 210 210 208 206 206 207 210 211 212
290 294 298 301 305 308 311 314 315 317 321 324 325 328 328 321 319 320 317 313 310 313 310 301 315 310 275 268 278 276 267 266 260 241 235 236 235 242 248 260 266 263 268 278 292 265 246 311 323 103 102 96 98 157 323 356 25 327 1 44 14 355 289 268 277 158 174 229 191 131 268 264 258 245 239 234 224 210 208 211 212 211 208 209 210 212 214 214
285 289 293 297 301 305 307 310 311 313 316 319 320 323 324 318 315 317 313 306 304 307 298 289 305 300 271 272 275 271 263 254 249 241 237 235 235 240 246 258 263 265 270 273 287 264 253 306 297 121 102 110 87 77 357 356 8 18 343 310 342 344 273 299 287 183 198 222 176 146 241 269 277 267 242 228 219 213 215 218 217 216 214 213 214 215 216 216
279 283 287 291 295 299 302 305 308 310 312 315 317 319 321 317 313 312 304 298 300 297 287 283 291 279 268 277 271 265 259 246 242 240 236 235 236 239 247 259 264 270 271 272 282 255 250 313 68 91 91 134 95 83 39 5 341 5 52 255 276 256 289 316 320 212 217 162 177 200 238 275 279 262 230 216 214 216 218 221 222 222 220 217 217 218 217 217
274 277 280 284 288 292 296 300 303 306 308 312 313 314 317 316 313 307 296 296 300 290 275 273 278 267 261 267 267 266 261 248 242 238 235 235 238 242 251 259 263 271 269 267 272 244 239 290 139 97 61 75 77 88 40 347 309 327 11 259 252 240 264 295 312 315 145 159 221 226 231 258 264 258 241 231 223 218 219 225 227 226 224 221 221 220 220 219
269 271 275 278 282 286 290 294 298 303 306 309 311 313 317 318 313 302 294 295 292 276 263 251 238 269 264 254 250 261 266 253 242 236 234 235 238 245 252 260 264 269 272 263 253 225 244 308 121 13 21 18 39 93 117 247 226 256 256 252 277 269 247 252 273 301 73 230 239 217 238 258 267 269 255 245 233 222 225 230 231 230 226 224 223 222 223 222
267 268 271 274 277 281 284 289 294 299 302 304 307 312 317 318 312 300 296 295 274 240 245 233 208 214 264 263 257 260 266 258 245 237 235 235 239 247 252 257 260 257 252 227 236 200 219 6 80 347 298 270 222 156 190 209 185 206 211 194 234 262 262 241 238 261 10 297 264 237 237 258 270 274 262 246 231 226 232 234 234 234 229 227 226 226 225 224
267 267 268 270 273 276 280 285 290 295 300 303 309 317 324 329 324 312 304 297 267 250 266 268 258 257 263 274 275 264 261 260 252 241 235 234 236 246 250 248 248 242 196 170 221 87 78 282 231 222 229 231 224 193 180 173 147 146 150 181 227 239 267 262 240 285 18 247 269 254 242 256 265 270 272 257 229 226 232 233 235 233 230 229 228 229 228 227
266 266 267 268 269 272 276 280 285 291 297 305 315 326 341 344 325 309 309 301 278 265 270 273 270 264 261 265 267 263 259 260 255 240 234 233 229 233 237 227 202 218 239 146 160 33 68 233 237 225 221 214 201 166 132 124 118 116 166 215 261 237 258 272 267 317 359 171 269 282 269 262 260 266 273 261 223 227 229 226 237 235 231 233 232 232 232 229
266 265 265 266 267 269 272 276 281 286 294 302 313 326 337 326 308 308 315 300 286 280 274 270 266 263 261 258 256 255 253 259 258 243 235 231 224 219 213 183 155 202 281 101 123 358 9 250 246 220 177 110 93 120 116 118 123 115 149 187 271 251 272 292 320 353 355 178 271 299 289 270 264 262 266 259 238 246 244 237 246 243 235 237 236 235 233 229
269 266 265 266 266 267 268 272 276 282 290 296 305 314 316 315 312 314 315 291 290 292 277 265 262 260 259 255 253 250 243 248 259 251 238 227 217 211 197 161 151 185 303 160 176 187 246 257 253 178 139 109 80 93 102 95 122 155 157 186 257 267 297 284 311 341 307 228 271 289 281 268 263 256 261 266 255 253 255 252 254 250 243 245 244 242 237 231
275 272 270 268 266 266 265 268 272 278 283 288 295 296 297 308 314 322 319 282 284 292 272 259 255 255 256 252 248 241 234 237 247 252 231 213 200 198 202 168 141 202 232 191 175 200 239 245 160 115 122 127 120 124 129 142 247 251 206 207 242 255 238 239 294 329 315 319 322 309 294 274 253 242 254 288 295 257 256 256 257 251 248 250 249 246 242 237
281 279 276 269 266 266 265 267 269 273 277 279 279 274 278 301 322 335 333 308 281 287 273 255 248 250 246 242 236 220 221 236 237 239 222 203 191 180 189 169 165 221 217 160 153 233 259 230 141 125 89 123 147 192 191 174 209 298 236 214 229 240 250 274 336 346 349 331 329 10 324 287 258 222 254 287 349 276 255 250 258 257 250 247 246 245 242 240
284 284 280 271 268 267 265 264 264 265 266 262 257 252 255 279 341 347 349 34 298 272 245 214 218 221 216 217 200 176 199 257 230 222 209 199 195 181 156 162 167 215 176 137 150 239 263 92 115 139 138 138 170 238 231 169 141 301 256 206 208 201 234 316 4 356 304 262 302 49 336 275 272 198 247 260 276 278 264 246 258 261 254 247 248 247 242 239
285 286 284 277 271 266 259 252 252 251 242 239 235 217 229 222 40 8 8 9 281 231 171 175 183 185 197 189 165 154 202 233 180 199 195 193 196 189 196 197 124 207 176 133 208 241 149 85 61 99 114 137 188 247 225 154 130 242 239 128 121 119 149 181 92 351 247 268 303 202 172 274 277 240 252 252 246 274 274 265 264 259 254 251 251 251 245 242
286 286 285 278 271 263 254 246 245 241 229 224 202 180 168 138 120 52 56 303 269 162 141 173 166 181 194 181 177 174 183 150 137 191 188 187 194 188 217 219 173 192 184 145 215 260 125 154 180 137 114 178 204 231 197 158 147 238 203 123 109 116 146 147 119 218 274 2 295 223 153 277 273 251 327 27 211 255 265 262 264 258 255 254 254 255 250 246
288 288 287 279 273 262 251 243 236 232 227 214 192 185 155 138 128 70 97 245 266 115 147 178 162 184 173 159 193 215 227 154 140 180 175 179 192 185 216 211 166 157 191 164 220 262 95 169 192 150 151 217 209 233 188 166 183 195 146 106 75 74 85 91 110 173 28 326 266 222 167 234 275 228 121 75 207 237 251 256 261 264 262 261 261 261 255 247
285 286 286 280 275 259 247 237 227 226 220 204 194 181 147 135 115 92 212 237 260 145 133 163 176 175 147 133 218 238 219 251 120 146 158 168 185 175 136 165 126 123 338 339 263 261 29 107 183 169 183 186 139 87 72 116 137 136 110 64 33 36 50 52 53 74 38 277 268 227 181 192 284 252 162 172 210 206 215 246 265 269 270 270 271 268 258 248
280 278 280 273 265 251 240 232 223 219 207 192 180 159 143 124 96 165 223 238 276 225 129 169 203 141 147 151 208 215 193 260 181 155 162 151 163 145 119 144 104 84 349 318 279 298 350 131 224 223 177 136 102 74 42 64 107 112 86 54 12 335 11 20 354 43 62 255 273 243 184 185 246 248 194 231 254 213 196 227 248 259 271 278 282 274 261 251
280 275 273 259 252 246 231 223 215 205 197 183 171 158 140 127 238 195 221 313 279 218 160 174 227 141 160 154 202 190 168 235 192 163 167 153 165 186 190 188 165 101 304 249 263 333 301 228 228 182 180 161 118 76 18 3 55 98 93 78 41 325 352 347 309 49 225 250 265 174 168 216 247 246 230 241 255 240 217 223 239 254 271 281 284 277 265 254
281 276 274 260 251 245 227 218 204 193 189 175 168 152 115 203 233 184 189 238 227 220 131 114 83 128 140 128 242 203 158 221 194 164 174 142 171 229 247 223 171 167 253 209 281 340 290 293 145 151 233 189 164 154 216 264 130 147 145 131 146 139 22 277 274 278 268 271 251 164 154 260 269 261 230 227 234 237 237 240 248 258 268 276 279 274 267 256
275 265 269 264 252 240 224 211 196 184 178 170 161 129 112 225 229 162 193 220 228 14 55 91 80 88 142 184 238 198 177 236 175 148 179 134 164 237 242 230 195 146 110 149 167 184 246 291 214 180 217 178 181 193 166 142 141 175 155 137 158 153 172 228 234 246 276 294 251 186 183 235 260 282 220 213 232 242 245 248 252 260 267 273 275 267 259 252
272 257 261 262 246 237 227 206 193 180 173 170 156 125 202 218 202 167 204 210 214 24 40 48 88 100 243 254 266 226 205 239 139 131 183 174 186 213 199 206 197 157 132 172 225 165 215 267 247 200 70 156 179 206 116 112 133 207 125 119 181 183 170 213 218 201 271 316 275 198 221 231 218 266 244 210 253 254 251 254 253 259 265 268 267 258 250 246
268 259 258 259 245 236 231 207 191 180 177 171 154 212 219 216 169 181 191 168 176 154 115 23 98 133 254 265 262 241 198 214 139 139 208 210 220 217 199 209 192 180 179 176 192 166 192 273 286 36 7 142 157 187 119 129 183 168 136 175 216 183 133 135 267 8 61 299 274 227 252 273 302 275 250 188 254 258 252 254 252 254 257 254 256 253 246 243
252 253 252 255 251 238 223 204 189 185 185 178 198 221 217 211 184 182 167 152 158 139 138 206 203 178 218 237 225 208 173 197 183 166 208 221 236 204 197 239 196 188 199 193 198 209 188 260 256 130 204 258 78 101 59 57 131 131 183 212 199 125 94 104 246 342 31 258 274 269 262 278 286 282 292 136 233 254 251 248 245 245 243 242 249 250 245 244
243 249 249 251 252 243 219 195 187 190 186 184 233 234 220 197 197 179 157 152 140 136 159 210 211 183 194 210 222 187 168 187 181 180 201 212 246 188 161 212 203 194 205 199 208 249 166 238 268 127 179 254 42 107 110 18 99 136 199 219 120 142 167 111 151 244 256 240 274 280 279 277 255 240 254 221 217 232 245 242 230 228 228 234 245 247 242 241
237 242 249 250 246 238 219 192 188 193 184 192 232 236 222 203 216 189 174 171 149 157 185 217 214 201 186 185 191 178 183 192 177 182 203 196 234 196 163 194 205 199 202 189 192 234 140 201 260 273 241 257 60 178 190 196 64 79 199 325 37 160 176 167 154 179 197 214 269 288 293 281 229 184 230 236 209 203 226 235 223 222 226 231 239 243 239 236
222 227 251 251 236 221 207 193 192 191 188 216 227 228 182 194 237 209 196 193 186 184 201 214 206 215 208 191 198 190 193 202 179 184 220 200 220 231 196 193 171 167 189 175 185 197 115 196 231 272 334 210 189 208 196 183 165 149 182 204 228 171 116 209 223 139 148 197 241 276 284 275 238 155 209 226 202 197 208 219 218 219 230 234 238 241 240 238
216 220 245 236 211 194 188 187 199 198 207 241 238 241 211 199 223 218 212 212 216 217 203 177 193 209 204 200 217 187 178 201 189 194 233 213 218 244 208 191 161 137 134 118 196 201 156 195 208 193 229 218 215 231 193 182 172 175 193 194 193 175 122 211 248 212 162 201 207 178 265 275 260 142 195 208 190 200 205 212 219 218 228 235 238 240 240 241
210 224 230 205 188 181 176 180 214 208 220 232 236 252 225 215 217 215 219 221 226 242 229 196 208 210 204 199 194 170 175 199 199 203 234 221 216 227 202 186 167 149 146 149 207 189 124 117 205 226 232 228 247 353 138 194 150 179 217 196 181 171 156 195 230 224 173 208 207 112 262 271 256 138 176 192 185 210 209 203 211 221 228 234 238 240 241 242
207 219 216 198 193 180 169 183 231 204 237 232 236 258 237 229 241 196 210 216 217 218 220 229 217 211 225 205 167 182 195 206 207 200 219 237 225 229 202 175 164 152 146 150 162 132 102 113 214 253 284 320 345 15 57 50 69 229 242 192 175 197 197 207 220 187 167 207 180 98 254 260 257 129 165 207 213 239 219 203 211 224 231 237 241 243 243 243
212 217 202 189 190 180 170 196 215 200 236 230 232 244 231 236 241 219 205 202 204 199 212 232 222 212 230 189 180 210 196 203 227 206 208 234 234 227 196 172 167 170 184 191 176 165 169 170 173 240 293 305 311 332 344 325 181 220 241 188 194 216 209 214 345 149 218 210 165 146 246 253 259 104 120 200 276 268 238 220 225 234 239 243 246 246 245 242
210 209 190 185 187 186 192 215 206 201 222 221 231 234 228 246 239 229 225 214 214 212 217 239 212 197 220 190 208 232 204 209 237 218 212 230 244 224 186 180 181 190 207 203 171 160 172 190 170 203 238 241 247 250 231 211 188 215 249 200 206 213 201 205 235 215 229 210 164 196 241 255 274 264 208 211 261 258 248 232 230 239 246 249 249 247 246 242
197 188 178 181 189 198 213 223 222 230 218 213 229 229 221 237 244 231 227 226 230 228 235 255 201 185 213 205 218 237 225 224 233 228 228 225 232 325 190 192 195 199 212 196 164 154 156 209 194 213 227 227 240 246 194 123 148 203 219 212 212 212 204 210 233 232 232 224 210 230 240 260 276 267 258 254 255 260 265 259 245 242 247 250 250 250 248 243
195 196 186 172 191 209 224 227 225 233 217 193 197 214 217 226 248 235 212 212 220 214 223 255 220 201 217 209 216 232 227 223 228 236 243 236 233 310 222 205 212 214 215 179 169 159 126 226 217 226 231 232 246 250 197 141 185 208 210 216 219 212 203 207 227 235 233 230 240 244 242 251 260 261 264 266 263 266 270 270 266 257 254 252 251 249 244 239
205 210 200 189 183 197 214 217 213 214 218 201 196 220 225 221 227 224 206 205 207 195 200 238 226 220 223 213 214 232 226 225 232 234 240 241 233 241 326 249 234 222 201 161 187 169 157 231 231 232 238 242 250 251 214 170 212 217 207 220 221 211 204 207 224 234 231 228 246 252 249 247 251 257 263 264 262 264 270 277 281 272 262 252 246 242 238 236
211 216 204 200 199 197 206 212 207 205 213 214 211 224 230 229 230 224 184 163 217 198 196 220 227 223 226 222 216 227 225 226 234 233 233 236 228 208 224 257 251 203 182 174 225 189 171 236 240 239 249 250 249 249 225 194 234 245 233 235 228 212 208 213 224 233 233 233 246 254 256 255 256 258 261 265 269 270 275 282 282 270 260 251 243 239 237 238
216 215 207 203 209 213 212 213 206 202 213 213 214 224 226 232 237 233 184 175 212 204 196 221 234 225 219 220 218 227 230 227 235 238 220 207 218 203 206 224 206 141 199 201 229 218 203 233 242 239 253 253 250 249 227 211 233 247 252 252 240 215 215 225 230 236 240 241 246 252 259 262 262 262 262 269 276 278 276 276 272 267 262 252 244 242 240 242
224 223 217 210 213 212 211 211 198 200 215 209 213 223 223 229 233 234 221 205 215 217 199 215 233 233 214 215 217 227 233 230 236 243 228 196 210 214 209 206 179 155 202 203 182 192 201 227 258 191 242 253 253 239 206 201 222 246 253 253 243 223 223 233 235 234 235 239 245 251 257 258 262 269 271 269 271 269 267 266 266 267 264 251 243 244 244 244
229 232 231 229 226 199 201 210 199 200 213 206 211 219 219 225 229 229 235 223 221 226 220 209 221 230 219 217 220 226 232 233 237 245 245 236 224 223 223 216 194 182 184 182 187 189 177 193 214 200 235 255 254 156 145 130 161 251 250 248 241 233 232 238 245 243 234 231 236 244 246 250 260 274 274 270 267 259 258 260 262 265 262 251 245 244 245 247
Height
1556 1555 1554 1554 1553 1552 1551 1550 1549 1548 1547 1546 1545 1544 1543 1542 1541 1540 1539 1538 1537 1536 1535 1534 1534 1533 1533 1532 1532 1532 1531 1531 1531 1531 1530 1530 1529 1529 1529 1528 1528 1527 1527 1526 1525 1524 1523 1523 1523 1522 1522 1522 1522 1522 1523 1523 1523 1523 1527 1529 1529 1534 1533 1528 1531 1531 1527 1525 1525 1526 1526 1527 1528 1530 1531 1531 1532 1531 1532 1531 1531 1530 1530 1530 1530 1530 1531 1532
1555 1555 1554 1554 1553 1552 1551 1550 1549 1548 1547 1546 1545 1544 1543 1542 1541 1540 1539 1538 1537 1537 1535 1534 1534 1533 1533 1532 1532 1532 1531 1531 1531 1531 1530 1529 1529 1529 1529 1528 1528 1528 1527 1526 1525 1524 1523 1523 1522 1522 1521 1521 1522 1522 1523 1523 1523 1525 1529 1530 1530 1532 1529 1525 1527 1527 1526 1525 1524 1526 1527 1527 1527 1528 1530 1530 1531 1531 1531 1530 1530 1529 1529 1528 1529 1529 1530 1531
1555 1555 1554 1553 1553 1552 1551 1550 1549 1548 1547 1546 1545 1544 1543 1541 1540 1540 1539 1538 1537 1536 1535 1534 1534 1533 1533 1532 1532 1531 1531 1531 1530 1530 1529 1529 1529 1528 1528 1528 1528 1528 1527 1526 1525 1524 1523 1522 1521 1521 1521 1521 1522 1522 1522 1523 1524 1525 1527 1529 1529 1529 1526 1525 1526 1526 1526 1525 1526 1526 1527 1527 1527 1528 1528 1528 1529 1530 1528 1526 1526 1526 1525 1526 1527 1528 1528 1530
1555 1555 1554 1553 1553 1552 1551 1550 1549 1548 1547 1545 1544 1543 1542 1541 1540 1539 1538 1537 1536 1536 1535 1534 1533 1533 1532 1532 1532 1531 1531 1531 1529 1529 1529 1528 1528 1528 1528 1528 1528 1527 1527 1526 1525 1524 1523 1522 1521 1520 1520 1521 1522 1522 1523 1524 1524 1525 1526 1528 1528 1527 1527 1525 1525 1526 1526 1526 1526 1526 1527 1527 1526 1527 1527 1527 1528 1528 1524 1520 1520 1519 1520 1522 1523 1525 1526 1527
1555 1554 1554 1553 1552 1552 1551 1550 1549 1548 1547 1545 1544 1543 1541 1540 1539 1538 1537 1536 1536 1535 1534 1534 1533 1532 1532 1531 1531 1531 1531 1531 1528 1528 1528 1528 1528 1528 1528 1527 1527 1527 1526 1526 1525 1524 1523 1522 1521 1520 1520 1521 1522 1522 1524 1525 1524 1526 1527 1528 1527 1527 1527 1525 1525 1526 1525 1526 1526 1526 1526 1525 1525 1526 1524 1524 1523 1519 1517 1517 1517 1517 1519 1520 1521 1522 1524 1525
1554 1553 1553 1552 1552 1551 1550 1549 1549 1547 1546 1545 1544 1542 1541 1540 1539 1537 1537 1536 1535 1534 1533 1533 1532 1532 1531 1531 1531 1530 1530 1530 1528 1527 1527 1527 1527 1527 1527 1527 1527 1527 1526 1525 1525 1524 1523 1522 1520 1520 1520 1522 1524 1524 1524 1525 1524 1525 1527 1528 1527 1527 1526 1524 1525 1525 1525 1526 1525 1525 1524 1524 1525 1523 1522 1521 1516 1513 1514 1516 1516 1518 1519 1520 1520 1521 1522 1523
1553 1553 1552 1552 1551 1550 1550 1549 1548 1547 1546 1545 1543 1542 1540 1539 1538 1537 1536 1535 1534 1533 1532 1532 1531 1531 1530 1530 1530 1529 1529 1528 1526 1527 1527 1527 1527 1527 1527 1527 1527 1526 1526 1525 1525 1524 1523 1522 1520 1520 1521 1523 1525 1525 1524 1524 1524 1524 1526 1527 1526 1527 1526 1525 1525 1525 1525 1524 1523 1524 1523 1523 1523 1521 1521 1516 1512 1512 1514 1514 1515 1516 1518 1519 1519 1520 1521 1522
1552 1552 1551 1551 1550 1549 1549 1548 1547 1546 1545 1544 1543 1541 1540 1538 1537 1536 1535 1534 1533 1533 1532 1531 1530 1530 1530 1529 1529 1529 1528 1526 1526 1526 1526 1526 1526 1526 1526 1526 1526 1526 1526 1525 1524 1524 1523 1521 1520 1521 1522 1523 1524 1524 1524 1524 1524 1525 1526 1526 1526 1526 1524 1524 1524 1524 1524 1523 1523 1523 1522 1522 1521 1521 1518 1511 1510 1512 1512 1513 1514 1514 1515 1516 1517 1518 1520 1521
1552 1551 1551 1550 1549 1549 1548 1547 1546 1545 1544 1543 1542 1541 1539 1538 1536 1535 1535 1534 1533 1532 1531 1531 1530 1529 1529 1529 1529 1528 1526 1525 1525 1525 1526 1526 1526 1526 1526 1526 1526 1525 1525 1525 1524 1523 1523 1522 1521 1521 1521 1523 1523 1524 1524 1523 1524 1525 1525 1526 1525 1524 1524 1523 1523 1522 1522 1522 1522 1522 1522 1521 1520 1522 1514 1506 1509 1510 1510 1512 1512 1512 1513 1513 1515 1517 1518 1519
1551 1550 1550 1549 1548 1548 1547 1546 1545 1544 1543 1542 1541 1540 1539 1537 1536 1535 1534 1533 1532 1531 1530 1530 1529 1529 1528 1528 1528 1527 1525 1525 1525 1525 1525 1525 1525 1525 1525 1525 1525 1525 1525 1524 1524 1523 1523 1522 1522 1521 1521 1522 1523 1524 1524 1524 1524 1525 1525 1525 1524 1523 1523 1522 1521 1521 1521 1520 1521 1521 1521 1520 1521 1523 1511 1503 1507 1508 1508 1510 1510 1510 1511 1512 1514 1515 1516 1517
1550 1550 1549 1548 1548 1547 1546 1545 1544 1543 1542 1541 1541 1539 1538 1536 1535 1534 1533 1532 1531 1530 1530 1529 1529 1528 1527 1527 1527 1526 1524 1524 1524 1523 1524 1524 1524 1524 1524 1524 1524 1524 1524 1523 1523 1523 1523 1522 1522 1521 1521 1522 1523 1523 1524 1524 1524 1524 1524 1523 1523 1523 1522 1521 1520 1520 1520 1519 1519 1520 1520 1519 1522 1519 1507 1503 1506 1506 1507 1508 1508 1508 1509 1511 1512 1513 1514 1515
1549 1548 1548 1547 1547 1546 1545 1544 1543 1543 1542 1541 1540 1538 1537 1536 1534 1533 1532 1531 1530 1529 1529 1528 1528 1527 1527 1526 1524 1523 1523 1523 1523 1522 1523 1523 1523 1523 1523 1524 1523 1524 1523 1523 1523 1523 1523 1522 1522 1521 1521 1522 1522 1523 1523 1524 1524 1523 1524 1523 1522 1521 1521 1521 1520 1519 1519 1519 1518 1520 1518 1515 1517 1511 1502 1504 1505 1505 1507 1506 1506 1507 1508 1510 1511 1512 1512 1513
1548 1547 1546 1546 1545 1545 1544 1543 1542 1541 1541 1540 1539 1538 1537 1535 1533 1532 1531 1530 1529 1529 1528 1528 1527 1527 1526 1524 1522 1522 1522 1522 1521 1522 1522 1522 1522 1522 1523 1523 1523 1523 1522 1522 1522 1522 1522 1522 1521 1521 1521 1522 1523 1523 1523 1524 1523 1523 1525 1524 1523 1521 1519 1520 1520 1520 1520 1519 1518 1520 1516 1506 1505 1504 1501 1504 1504 1504 1505 1504 1505 1505 1507 1508 1509 1509 1510 1511
1546 1546 1545 1545 1544 1544 1543 1542 1541 1540 1539 1539 1538 1537 1536 1534 1533 1531 1530 1529 1528 1528 1528 1527 1527 1526 1525 1523 1521 1521 1521 1520 1520 1520 1521 1521 1521 1522 1522 1522 1522 1522 1522 1522 1522 1522 1521 1521 1521 1521 1521 1522 1522 1523 1523 1524 1523 1524 1524 1526 1530 1525 1518 1519 1521 1520 1519 1518 1517 1521 1520 1505 1498 1501 1502 1502 1502 1503 1503 1502 1504 1504 1504 1505 1506 1507 1507 1508
1545 1544 1544 1543 1543 1542 1542 1541 1540 1539 1538 1537 1536 1536 1535 1533 1531 1530 1529 1528 1528 1527 1526 1526 1526 1525 1525 1521 1520 1520 1519 1519 1519 1519 1520 1520 1520 1521 1521 1521 1521 1521 1521 1521 1521 1521 1521 1521 1520 1520 1521 1521 1522 1523 1524 1525 1526 1528 1525 1524 1533 1530 1521 1519 1519 1519 1518 1517 1518 1519 1519 1507 1498 1500 1500 1501 1501 1501 1501 1500 1501 1501 1502 1503 1503 1504 1504 1505
1542 1542 1542 1542 1541 1541 1540 1539 1539 1538 1537 1536 1535 1534 1533 1532 1530 1529 1528 1527 1527 1526 1525 1525 1525 1525 1524 1520 1519 1518 1518 1518 1518 1518 1519 1519 1519 1520 1520 1520 1520 1520 1520 1521 1521 1521 1521 1520 1520 1521 1521 1521 1523 1524 1525 1527 1526 1531 1530 1524 1528 1528 1524 1521 1517 1518 1518 1517 1518 1518 1515 1506 1498 1498 1499 1500 1500 1500 1500 1499 1499 1498 1498 1499 1500 1500 1501 1502
1540 1540 1540 1540 1540 1539 1539 1538 1537 1536 1535 1535 1533 1533 1532 1531 1529 1528 1526 1526 1525 1524 1524 1524 1524 1524 1522 1518 1517 1517 1517 1517 1517 1518 1517 1518 1518 1518 1519 1519 1519 1520 1519 1520 1520 1520 1520 1520 1521 1521 1521 1523 1525 1524 1526 1528 1524 1529 1533 1528 1527 1528 1527 1522 1516 1517 1518 1517 1516 1517 1515 1506 1496 1496 1498 1498 1499 1499 1497 1495 1495 1495 1495 1496 1497 1498 1498 1498
1537 1537 1537 1538 1537 1537 1537 1536 1536 1535 1534 1533 1532 1531 1530 1529 1528 1527 1525 1524 1524 1524 1524 1523 1523 1525 1520 1515 1516 1516 1516 1516 1516 1517 1517 1517 1517 1518 1518 1518 1519 1519 1519 1519 1519 1520 1520 1520 1521 1521 1522 1524 1524 1524 1526 1527 1523 1525 1528 1527 1527 1529 1528 1524 1519 1517 1517 1517 1516 1516 1515 1506 1495 1493 1495 1496 1496 1495 1492 1491 1492 1491 1493 1493 1493 1494 1494 1494
1535 1535 1535 1535 1535 1535 1535 1534 1534 1533 1532 1531 1531 1530 1528 1527 1526 1525 1524 1523 1523 1523 1522 1522 1522 1522 1518 1514 1515 1515 1515 1515 1515 1515 1515 1516 1516 1517 1517 1517 1518 1518 1518 1519 1518 1519 1520 1520 1521 1521 1520 1519 1519 1520 1520 1520 1521 1523 1525 1527 1526 1526 1524 1522 1519 1517 1517 1517 1514 1513 1512 1504 1495 1490 1490 1492 1493 1491 1488 1489 1490 1489 1489 1490 1489 1489 1489 1489
1532 1532 1532 1532 1533 1533 1532 1533 1532 1532 1531 1529 1529 1528 1527 1527 1525 1524 1523 1522 1522 1521 1520 1520 1519 1518 1516 1514 1515 1515 1514 1514 1514 1514 1514 1515 1515 1516 1516 1517 1517 1517 1518 1518 1519 1520 1521 1521 1520 1518 1515 1514 1516 1518 1519 1520 1523 1524 1526 1527 1527 1528 1523 1517 1517 1517 1518 1517 1510 1508 1509 1505 1497 1488 1485 1488 1489 1487 1486 1487 1486 1485 1485 1484 1484 1483 1483 1484
1529 1530 1530 1530 1530 1530 1530 1530 1530 1530 1530 1528 1528 1528 1528 1528 1527 1525 1522 1520 1520 1520 1518 1517 1517 1515 1513 1513 1513 1513 1513 1513 1512 1512 1513 1513 1515 1515 1515 1515 1516 1517 1518 1518 1519 1519 1521 1521 1516 1512 1513 1514 1517 1520 1521 1522 1524 1524 1525 1526 1526 1528 1522 1514 1517 1518 1519 1519 1510 1507 1508 1503 1495 1487 1481 1483 1485 1481 1481 1483 1480 1479 1479 1478 1478 1477 1478 1481
1526 1526 1527 1527 1527 1528 1528 1528 1528 1529 1528 1528 1528 1527 1528 1528 1527 1526 1524 1520 1515 1516 1516 1514 1513 1511 1511 1512 1511 1511 1513 1511 1510 1510 1511 1512 1513 1513 1513 1514 1515 1516 1518 1519 1519 1520 1522 1517 1510 1511 1515 1517 1520 1521 1520 1520 1523 1524 1526 1528 1525 1524 1521 1514 1517 1520 1520 1519 1511 1508 1507 1497 1489 1484 1476 1474 1477 1475 1474 1476 1473 1472 1474 1473 1472 1473 1475 1478
1523 1523 1524 1525 1525 1526 1526 1526 1526 1527 1527 1527 1527 1527 1527 1526 1526 1526 1525 1522 1514 1511 1511 1510 1509 1508 1507 1508 1508 1509 1510 1509 1508 1508 1509 1510 1511 1512 1512 1513 1515 1516 1517 1517 1517 1520 1519 1512 1509 1513 1515 1515 1518 1521 1520 1520 1523 1524 1525 1526 1522 1521 1521 1515 1516 1520 1519 1518 1514 1511 1504 1487 1479 1477 1470 1467 1470 1471 1471 1469 1468 1468 1468 1467 1467 1469 1471 1472
1519 1520 1522 1522 1522 1523 1523 1524 1524 1524 1525 1525 1525 1525 1525 1525 1525 1524 1524 1522 1515 1508 1507 1506 1506 1505 1504 1505 1505 1507 1507 1507 1506 1505 1506 1508 1509 1511 1511 1512 1515 1515 1515 1515 1516 1517 1513 1510 1513 1515 1514 1513 1515 1520 1521 1520 1521 1522 1522 1523 1519 1518 1519 1516 1519 1521 1517 1517 1517 1511 1489 1467 1468 1471 1465 1466 1470 1468 1467 1466 1463 1463 1463 1463 1464 1465 1465 1465
1516 1517 1519 1519 1519 1520 1521 1522 1522 1522 1523 1523 1524 1524 1525 1524 1524 1524 1523 1522 1517 1508 1504 1504 1503 1502 1502 1503 1503 1504 1505 1504 1504 1504 1505 1506 1508 1509 1510 1512 1513 1512 1514 1516 1519 1516 1510 1511 1513 1513 1514 1515 1514 1517 1518 1518 1520 1520 1517 1518 1516 1515 1517 1519 1522 1520 1514 1513 1516 1514 1491 1464 1464 1470 1464 1465 1469 1465 1465 1463 1458 1457 1459 1461 1460 1459 1460 1461
1514 1514 1515 1515 1516 1518 1520 1519 1520 1521 1520 1522 1522 1522 1524 1523 1524 1524 1522 1525 1521 1507 1500 1502 1501 1500 1500 1501 1502 1504 1505 1502 1501 1502 1503 1504 1506 1507 1509 1510 1511 1511 1513 1516 1518 1514 1510 1512 1513 1512 1513 1515 1515 1516 1517 1518 1521 1520 1516 1517 1518 1517 1519 1520 1521 1520 1515 1513 1516 1519 1510 1482 1462 1461 1461 1462 1465 1462 1461 1460 1456 1454 1456 1456 1454 1453 1455 1456
1512 1512 1512 1513 1513 1515 1517 1517 1518 1518 1519 1520 1520 1521 1523 1522 1525 1523 1522 1529 1520 1499 1496 1499 1499 1498 1499 1500 1501 1502 1502 1499 1499 1500 1501 1503 1504 1506 1507 1508 1510 1510 1512 1515 1514 1510 1508 1511 1513 1512 1513 1515 1514 1512 1513 1517 1517 1516 1517 1519 1518 1518 1520 1520 1522 1522 1519 1520 1520 1518 1518 1502 1472 1461 1463 1462 1464 1463 1458 1455 1452 1451 1451 1450 1449 1449 1450 1451
1510 1510 1510 1510 1511 1512 1514 1514 1515 1516 1517 1518 1518 1521 1521 1522 1525 1522 1526 1533 1513 1491 1493 1496 1496 1497 1497 1498 1499 1499 1499 1497 1498 1499 1500 1502 1503 1504 1505 1506 1507 1508 1509 1512 1509 1505 1506 1508 1509 1510 1512 1512 1510 1509 1511 1513 1511 1514 1519 1520 1519 1519 1520 1522 1522 1523 1525 1525 1518 1514 1521 1510 1475 1460 1469 1467 1465 1462 1454 1449 1447 1446 1446 1445 1445 1446 1446 1448
1508 1508 1508 1508 1508 1510 1511 1512 1513 1514 1515 1517 1518 1520 1520 1523 1523 1522 1534 1533 1503 1487 1493 1494 1495 1497 1496 1498 1499 1498 1498 1498 1498 1498 1499 1501 1502 1503 1504 1504 1506 1507 1509 1509 1504 1503 1505 1507 1507 1508 1508 1506 1507 1512 1513 1511 1509 1514 1520 1519 1520 1522 1523 1525 1523 1520 1526 1520 1504 1504 1515 1506 1468 1450 1466 1471 1464 1459 1450 1446 1445 1443 1443 1442 1442 1443 1444 1446
1506 1506 1506 1506 1507 1509 1509 1510 1511 1512 1514 1516 1517 1518 1520 1522 1522 1528 1538 1524 1495 1490 1494 1492 1494 1495 1495 1498 1498 1498 1499 1498 1497 1498 1500 1501 1501 1502 1503 1504 1506 1507 1508 1509 1506 1504 1506 1508 1508 1507 1505 1504 1508 1514 1514 1514 1513 1515 1518 1515 1516 1521 1523 1528 1526 1523 1522 1505 1492 1497 1505 1502 1475 1451 1457 1460 1452 1447 1443 1442 1444 1441 1439 1440 1441 1442 1442 1444
1504 1505 1505 1505 1506 1507 1507 1509 1510 1511 1513 1514 1516 1518 1519 1521 1526 1532 1526 1506 1492 1493 1491 1491 1495 1494 1494 1496 1495 1497 1498 1497 1498 1498 1499 1500 1501 1502 1503 1503 1505 1508 1509 1508 1504 1504 1506 1506 1506 1503 1503 1504 1507 1511 1514 1516 1516 1515 1515 1513 1513 1516 1518 1522 1523 1524 1517 1495 1490 1501 1505 1504 1482 1452 1449 1449 1442 1442 1440 1438 1439 1438 1437 1438 1439 1440 1440 1441
1503 1503 1503 1503 1504 1505 1506 1507 1508 1510 1512 1513 1515 1516 1517 1524 1526 1521 1510 1496 1491 1490 1487 1491 1494 1493 1495 1495 1494 1496 1497 1496 1496 1496 1498 1500 1501 1500 1499 1498 1501 1504 1505 1505 1503 1502 1500 1500 1503 1502 1501 1503 1503 1507 1514 1515 1516 1514 1514 1517 1519 1520 1519 1515 1513 1516 1510 1494 1496 1507 1506 1497 1470 1443 1443 1443 1439 1440 1438 1435 1436 1435 1435 1436 1437 1439 1438 1439
1502 1501 1501 1502 1502 1503 1504 1505 1507 1509 1510 1512 1515 1513 1519 1525 1514 1502 1500 1493 1486 1486 1487 1490 1493 1494 1495 1494 1493 1495 1496 1494 1494 1496 1497 1499 1501 1499 1497 1496 1497 1496 1496 1503 1506 1500 1494 1495 1501 1500 1497 1499 1498 1501 1506 1508 1512 1514 1512 1514 1517 1521 1522 1514 1512 1512 1501 1491 1499 1510 1504 1482 1451 1433 1434 1433 1431 1433 1433 1433 1434 1432 1433 1434 1435 1437 1436 1436
1500 1500 1500 1499 1500 1501 1502 1504 1506 1507 1509 1511 1512 1514 1521 1519 1501 1493 1495 1488 1483 1487 1489 1490 1493 1495 1494 1492 1492 1492 1492 1491 1493 1495 1496 1499 1501 1498 1494 1494 1497 1494 1495 1503 1504 1500 1496 1490 1492 1493 1490 1493 1495 1494 1496 1500 1509 1512 1510 1511 1510 1509 1509 1503 1501 1499 1490 1487 1496 1506 1494 1462 1436 1427 1426 1427 1428 1430 1430 1431 1431 1430 1431 1432 1432 1433 1433 1433
1499 1498 1498 1497 1498 1498 1499 1503 1504 1506 1509 1509 1510 1515 1511 1499 1491 1491 1488 1484 1485 1487 1488 1491 1492 1493 1494 1493 1492 1490 1487 1487 1491 1495 1495 1496 1495 1490 1487 1487 1491 1493 1495 1499 1499 1501 1502 1489 1486 1492 1491 1492 1494 1494 1497 1499 1504 1511 1512 1511 1506 1500 1498 1498 1500 1501 1503 1501 1495 1492 1474 1444 1432 1428 1424 1429 1429 1427 1429 1429 1428 1428 1428 1430 1430 1429 1429 1429
1498 1496 1496 1495 1494 1496 1499 1501 1502 1505 1506 1506 1511 1508 1491 1477 1480 1482 1478 1477 1480 1481 1487 1491 1490 1491 1492 1489 1489 1489 1486 1487 1491 1493 1493 1494 1490 1486 1483 1479 1482 1485 1484 1488 1491 1495 1496 1488 1489 1496 1493 1495 1496 1495 1498 1496 1495 1508 1511 1504 1502 1502 1497 1497 1504 1511 1518 1508 1483 1472 1459 1436 1431 1427 1422 1429 1427 1424 1429 1426 1424 1427 1426 1428 1427 1425 1426 1426
1496 1494 1493 1491 1492 1496 1497 1498 1501 1503 1504 1506 1505 1491 1474 1469 1471 1471 1470 1472 1474 1476 1481 1484 1483 1483 1483 1480 1482 1485 1485 1487 1490 1490 1489 1490 1482 1475 1477 1474 1473 1476 1472 1475 1481 1482 1483 1482 1487 1494 1491 1494 1498 1496 1498 1497 1496 1503 1504 1497 1499 1504 1501 1501 1506 1508 1514 1509 1481 1463 1454 1436 1430 1426 1421 1426 1424 1419 1423 1422 1422 1425 1425 1425 1422 1421 1423 1423
1493 1492 1488 1486 1489 1493 1494 1497 1499 1500 1502 1504 1495 1477 1468 1468 1464 1464 1466 1468 1470 1472 1475 1476 1474 1473 1474 1474 1475 1481 1483 1483 1486 1486 1483 1482 1472 1462 1468 1469 1467 1469 1467 1470 1475 1476 1480 1480 1485 1496 1495 1494 1498 1496 1495 1498 1498 1497 1496 1497 1496 1496 1499 1504 1509 1502 1502 1506 1482 1457 1449 1432 1419 1419 1415 1416 1418 1415 1416 1417 1419 1422 1422 1420 1418 1417 1419 1420
1491 1490 1482 1477 1484 1489 1491 1495 1496 1498 1501 1498 1486 1474 1467 1463 1461 1462 1463 1463 1466 1468 1469 1468 1466 1467 1470 1469 1469 1475 1478 1475 1479 1481 1474 1473 1467 1458 1460 1460 1459 1465 1465 1468 1472 1472 1477 1478 1480 1493 1498 1494 1496 1495 1490 1491 1498 1499 1497 1499 1497 1494 1495 1497 1503 1499 1492 1495 1481 1461 1448 1417 1397 1406 1405 1403 1409 1410 1410 1412 1414 1417 1416 1414 1413 1412 1414 1415
1488 1487 1475 1470 1479 1485 1488 1494 1494 1494 1492 1483 1473 1468 1464 1462 1462 1461 1459 1460 1461 1462 1462 1462 1463 1465 1466 1467 1467 1467 1470 1470 1473 1475 1468 1464 1462 1456 1456 1454 1455 1463 1465 1467 1470 1469 1476 1477 1474 1487 1499 1495 1485 1479 1474 1473 1485 1493 1494 1497 1496 1496 1499 1496 1498 1497 1489 1489 1484 1477 1457 1407 1382 1397 1399 1396 1403 1404 1404 1406 1407 1411 1410 1407 1409 1408 1410 1412
1484 1481 1469 1466 1474 1479 1486 1492 1489 1486 1483 1473 1466 1463 1462 1461 1459 1458 1457 1459 1459 1457 1458 1459 1461 1460 1460 1464 1465 1463 1466 1469 1469 1469 1463 1459 1456 1451 1448 1447 1450 1458 1464 1469 1469 1466 1471 1473 1470 1477 1486 1480 1468 1466 1470 1468 1471 1476 1477 1480 1481 1485 1493 1493 1491 1490 1487 1483 1474 1476 1464 1410 1378 1392 1394 1393 1400 1399 1400 1402 1402 1405 1404 1402 1405 1404 1406 1408
1479 1473 1465 1466 1471 1473 1480 1484 1480 1479 1476 1467 1462 1461 1460 1458 1456 1456 1457 1458 1458 1457 1457 1457 1455 1456 1455 1455 1458 1460 1462 1463 1464 1464 1458 1453 1450 1444 1441 1443 1446 1449 1455 1462 1463 1461 1465 1469 1469 1466 1465 1466 1467 1470 1475 1472 1471 1473 1471 1470 1471 1475 1479 1477 1475 1475 1480 1480 1470 1478 1474 1415 1375 1388 1393 1391 1397 1395 1396 1399 1398 1401 1400 1399 1402 1401 1403 1405
1468 1465 1463 1466 1466 1467 1475 1479 1475 1473 1467 1459 1458 1458 1457 1457 1456 1455 1455 1455 1456 1456 1456 1452 1448 1450 1451 1450 1453 1456 1457 1456 1455 1455 1452 1449 1445 1439 1439 1442 1444 1447 1450 1454 1458 1460 1464 1467 1468 1463 1458 1463 1470 1474 1474 1474 1474 1472 1467 1468 1469 1466 1462 1460 1463 1464 1468 1469 1468 1483 1475 1410 1370 1386 1393 1390 1396 1396 1395 1397 1396 1397 1397 1396 1398 1398 1399 1401
1460 1461 1462 1464 1464 1464 1465 1463 1461 1462 1458 1456 1457 1456 1455 1455 1452 1451 1451 1451 1451 1451 1449 1445 1444 1447 1448 1448 1449 1449 1450 1451 1446 1445 1447 1445 1438 1435 1436 1439 1442 1444 1444 1444 1447 1453 1460 1463 1467 1469 1465 1462 1464 1467 1469 1473 1473 1466 1459 1463 1463 1459 1459 1462 1465 1469 1464 1453 1457 1472 1451 1391 1369 1388 1393 1390 1395 1394 1393 1395 1393 1394 1394 1394 1394 1395 1396 1397
1456 1458 1459 1460 1462 1460 1453 1446 1447 1452 1453 1454 1454 1452 1453 1452 1446 1444 1446 1446 1445 1446 1445 1444 1446 1446 1445 1447 1447 1445 1446 1444 1440 1440 1441 1438 1433 1433 1434 1436 1438 1437 1436 1436 1438 1443 1450 1454 1457 1463 1463 1458 1450 1445 1447 1456 1464 1463 1457 1458 1459 1457 1460 1458 1458 1463 1456 1445 1452 1451 1415 1378 1374 1384 1385 1389 1393 1390 1390 1391 1391 1390 1390 1390 1391 1391 1392 1392
1449 1451 1454 1457 1458 1455 1447 1443 1446 1447 1446 1450 1452 1450 1450 1448 1441 1439 1443 1444 1443 1444 1445 1444 1444 1444 1443 1445 1445 1443 1441 1440 1439 1438 1435 1432 1431 1431 1432 1433 1433 1433 1434 1436 1437 1439 1443 1445 1444 1442 1440 1437 1429 1424 1430 1441 1449 1452 1448 1448 1451 1452 1454 1454 1452 1448 1441 1441 1443 1423 1398 1394 1388 1373 1374 1386 1388 1386 1386 1385 1385 1386 1385 1386 1386 1386 1387 1388
1439 1437 1440 1445 1449 1450 1446 1443 1443 1442 1440 1445 1446 1441 1439 1441 1440 1439 1438 1437 1438 1441 1444 1442 1441 1442 1440 1439 1440 1436 1434 1437 1440 1436 1429 1427 1428 1431 1432 1432 1432 1433 1434 1436 1437 1437 1439 1438 1433 1428 1425 1422 1418 1419 1428 1434 1434 1437 1439 1439 1441 1444 1449 1454 1446 1431 1427 1436 1426 1399 1397 1409 1388 1363 1370 1382 1381 1382 1380 1378 1379 1380 1380 1381 1381 1381 1383 1383
1430 1426 1426 1428 1430 1433 1434 1430 1431 1435 1438 1439 1437 1434 1433 1436 1437 1434 1432 1433 1434 1437 1440 1439 1436 1434 1430 1430 1434 1433 1434 1438 1437 1430 1423 1423 1427 1431 1432 1433 1435 1435 1435 1438 1437 1435 1436 1430 1423 1423 1424 1421 1418 1420 1426 1430 1427 1428 1432 1430 1430 1434 1440 1444 1436 1419 1417 1421 1406 1388 1396 1399 1373 1360 1371 1375 1374 1378 1375 1372 1375 1375 1375 1376 1376 1377 1378 1378
1424 1422 1423 1424 1419 1418 1417 1416 1422 1429 1431 1432 1433 1431 1430 1428 1425 1423 1426 1431 1432 1431 1433 1430 1424 1422 1424 1427 1431 1433 1434 1432 1426 1420 1419 1422 1425 1429 1431 1432 1434 1436 1437 1438 1437 1436 1433 1425 1418 1421 1423 1421 1419 1419 1425 1432 1429 1426 1427 1422 1420 1426 1431 1430 1420 1407 1406 1410 1398 1388 1391 1380 1357 1358 1369 1368 1368 1374 1372 1369 1371 1370 1370 1371 1371 1372 1373 1374
1417 1415 1416 1418 1415 1414 1415 1416 1421 1425 1425 1427 1429 1426 1423 1421 1417 1416 1419 1422 1423 1425 1426 1421 1414 1415 1421 1426 1430 1430 1424 1418 1413 1411 1414 1420 1423 1427 1428 1424 1426 1435 1439 1436 1435 1436 1432 1423 1418 1421 1422 1417 1413 1415 1422 1428 1427 1426 1423 1413 1410 1420 1426 1419 1408 1401 1405 1407 1396 1392 1393 1372 1348 1353 1368 1367 1366 1371 1370 1366 1365 1365 1366 1367 1366 1367 1368 1369
1409 1407 1408 1410 1407 1408 1410 1412 1416 1419 1419 1421 1420 1415 1415 1413 1408 1409 1413 1412 1412 1414 1415 1413 1412 1415 1420 1424 1425 1419 1409 1407 1408 1407 1409 1415 1418 1419 1419 1417 1419 1428 1434 1434 1432 1431 1431 1427 1421 1424 1424 1413 1407 1414 1420 1423 1428 1431 1418 1398 1397 1411 1411 1401 1397 1399 1401 1399 1395 1398 1394 1366 1344 1352 1365 1364 1364 1367 1364 1360 1359 1359 1360 1361 1361 1361 1362 1363
1406 1405 1406 1407 1402 1400 1404 1406 1409 1411 1409 1407 1406 1403 1403 1402 1401 1407 1412 1408 1403 1403 1405 1408 1410 1413 1417 1417 1410 1401 1397 1400 1404 1406 1409 1412 1412 1412 1413 1413 1413 1417 1424 1428 1427 1425 1426 1423 1420 1425 1423 1411 1411 1419 1419 1424 1432 1422 1394 1377 1383 1395 1393 1388 1391 1390 1386 1386 1391 1389 1371 1350 1347 1358 1362 1358 1358 1359 1356 1354 1354 1354 1355 1356 1355 1355 1355 1356